Tracking 29528 objects as of 13-Sep-2024
HD Live streaming from Space Station
objects crossing your sky now

STARLINK-4302

Track STARLINK-4302 now!
10-day predictions
STARLINK-4302 is classified as:


NORAD ID: 53481
Int'l Code: 2022-099S
Perigee: 569.7 km
Apogee: 570.4 km
Inclination: 97.7 °
Period: 95.9 minutes
Semi major axis: 6941 km
RCS: Unknown
Launch date: August 12, 2022
Source: United States (US)
Launch site: AIR FORCE WESTERN TEST RANGE (AFWTR)
Your satellite tracking list
Your tracking list is empty




NASA's NSSDC Master Catalog

Two Line Element Set (TLE):
1 53481U 22099S   24257.35324351  .00008880  00000-0  69456-3 0  9996
2 53481  97.6582  16.9312 0000549 104.5887 255.5398 15.01288823114857
Source of the keplerian elements: AFSPC